Погода в Катковке

Россия / Пензенская область     52°37′41″N   44°44′27″E
темп.,
°C
ветер,
м/с
пор.,
м/с
влажн.,
%
обл.,
%
осадки,
мм/ч
давл.,
гПа
погр.,
м
29 июня, ср
ср2900:00+12всв35760 0.0 102075
03:00+11св22800 0.0 102016
06:00+12ссв35750 0.0 1021204
09:00+16ссв57520 0.0 10201183
12:00+18ссв564712 0.0 10201655
15:00+19с554957 0.0 10191860
18:00+17с556242 0.0 10181043
21:00+13ссв33720 0.0 101950
30 июня, чт
чт3000:00+11с22740 0.0 101910
03:00+10сз23815 0.0 101825
06:00+13сз24770 0.0 1017162
09:00+17сз4563100 0.0 1016913
12:00+20сз45475 0.0 10151882
15:00+20ссз5744100 0.0 10142549
18:00+17зсз3566100 0.0 1013131
21:00+14зсз347456 0.0 101260
1 июля, пт
пт100:00+14сз397088 0.1 1011175
03:00+10с3689100 0.3 1012182
06:00+10ссв611850 0.1 1013644
09:00+12с7105661 0.1 10141467
12:00+9ссв71380100 0.1 10151277
15:00+10с71176100 0.3 10151042
18:00+10с6108797 0.9 1014872
21:00+11с81591100 3.9 1014998
2 июля, сб
сб200:00+11с9179118 0.0 1014690
03:00+10с715927 0.0 1014503
06:00+11с7159011 0.0 1014543
09:00+17ссв9126810 0.0 10141053
12:00+20ссв8115499 0.1 10141951
15:00+20с8105497 0.6 10141986
18:00+19с69585 0.0 10141076
21:00+14ссз45805 0.0 101467
3 июля, вс
вс300:00+13сз478252 0.0 1013120
03:00+14сз377997 0.0 1012171
06:00+15сз378221 0.1 1011231
09:00+20с68646 0.1 1011830
12:00+23с7105318 0.0 10111927
15:00+22с8105639 0.0 10121734
18:00+19ссв610675 0.0 10131268
21:00+14с488182 0.0 1014149